| time (UTC) | temp F | wind direction | speed knots | gust knots | rain 1hr in | rain 24hr in | rain mn in | humidity % | barometer mb |
| 20260507070051 | 51 | 107 | 0.0 | 0.0 | 0.00 | 0.33 | 0.00 | 1 | 1006.4 |
| 20260507064546 | 51 | 230 | 0.0 | 0.0 | 0.00 | 0.33 | 0.00 | 1 | 1006.2 |
| 20260507063036 | 52 | 250 | 0.0 | 0.9 | 0.00 | 0.33 | 0.00 | 1 | 1006.3 |
| 20260507061529 | 52 | 282 | 0.0 | 0.0 | 0.00 | 0.33 | 0.00 | 1 | 1006.4 |
| 20260507060024 | 52 | 256 | 0.0 | 0.0 | 0.00 | 0.33 | 0.00 | 1 | 1006.4 |
| 20260507054519 | 52 | 247 | 0.0 | 0.0 | 0.00 | 0.33 | 0.00 | 1 | 1006.3 |
| 20260507053014 | 53 | 264 | 0.0 | 0.0 | 0.00 | 0.33 | 0.00 | 1 | 1006.3 |
| 20260507051514 | 53 | 347 | 0.0 | 0.9 | 0.00 | 0.33 | 0.00 | 1 | 1005.9 |
| 20260507050015 | 54 | 236 | 0.0 | 0.0 | 0.00 | 0.33 | 0.00 | 1 | 1006.1 |
| 20260507044502 | 55 | 265 | 0.0 | 0.0 | 0.00 | 0.33 | 0.00 | 1 | 1006.3 |
| 20260507043057 | 55 | 239 | 0.0 | 0.0 | 0.00 | 0.33 | 0.00 | 1 | 1006.0 |
| 20260507041554 | 56 | 235 | 0.0 | 0.0 | 0.00 | 0.33 | 0.00 | 1 | 1005.9 |
| 20260507040049 | 56 | 77 | 0.0 | 0.0 | 0.00 | 0.33 | 0.33 | 1 | 1005.6 |
| 20260507034546 | 57 | 237 | 0.0 | 0.0 | 0.00 | 0.33 | 0.33 | 1 | 1005.3 |
| 20260507033050 | 58 | 255 | 0.0 | 0.9 | 0.00 | 0.33 | 0.33 | 1 | 1005.7 |
| 20260507031551 | 59 | 181 | 0.0 | 0.9 | 0.00 | 0.33 | 0.33 | 1 | 1005.5 |
| 20260507030033 | 60 | 258 | 0.0 | 0.0 | 0.00 | 0.33 | 0.33 | 1 | 1005.1 |
| 20260507024529 | 60 | 179 | 0.0 | 0.9 | 0.00 | 0.33 | 0.33 | 1 | 1004.8 |
| 20260507023026 | 60 | 239 | 0.0 | 2.6 | 0.00 | 0.33 | 0.33 | 1 | 1004.8 |
| 20260507021520 | 60 | 132 | 0.0 | 0.9 | 0.00 | 0.33 | 0.33 | 1 | 1004.7 |
| 20260507020022 | 60 | 231 | 0.0 | 0.0 | 0.00 | 0.33 | 0.33 | 1 | 1005.0 |
| 20260507014512 | 60 | 238 | 0.0 | 0.9 | 0.00 | 0.33 | 0.33 | 1 | 1005.1 |
| 20260507013008 | 60 | 249 | 0.0 | 0.9 | 0.00 | 0.33 | 0.33 | 1 | 1005.1 |
| 20260507011506 | 60 | 268 | 0.0 | 1.7 | 0.00 | 0.33 | 0.33 | 1 | 1005.3 |
| 20260507010058 | 60 | 185 | 0.0 | 0.9 | 0.00 | 0.33 | 0.33 | 1 | 1005.2 |
| 20260507004554 | 60 | 241 | 0.0 | 0.9 | 0.00 | 0.33 | 0.33 | 1 | 1005.3 |
| 20260507003049 | 60 | 199 | 0.0 | 0.9 | 0.00 | 0.33 | 0.33 | 1 | 1005.1 |
| 20260507001543 | 60 | 205 | 0.0 | 0.9 | 0.01 | 0.33 | 0.33 | 1 | 1005.1 |
| 20260507000039 | 60 | 167 | 0.0 | 0.0 | 0.01 | 0.33 | 0.33 | 1 | 1005.0 |
| 20260506234545 | 61 | 221 | 0.0 | 2.6 | 0.01 | 0.33 | 0.33 | 1 | 1004.9 |
| 20260506233031 | 61 | 190 | 0.0 | 0.9 | 0.01 | 0.33 | 0.33 | 1 | 1005.0 |
| 20260506231526 | 61 | 221 | 0.0 | 0.9 | 0.00 | 0.32 | 0.32 | 1 | 1005.1 |
| 20260506230022 | 61 | 221 | 0.0 | 0.9 | 0.02 | 0.32 | 0.32 | 1 | 1005.2 |
| 20260506224517 | 61 | 239 | 0.0 | 1.7 | 0.03 | 0.32 | 0.32 | 1 | 1005.4 |
| 20260506223017 | 61 | 244 | 0.0 | 0.9 | 0.05 | 0.32 | 0.32 | 1 | 1005.5 |
| 20260506221508 | 61 | 142 | 0.0 | 4.3 | 0.08 | 0.32 | 0.32 | 1 | 1005.5 |
| 20260506151539 | 70 | 234 | 1.7 | 6.1 | 0.00 | 0.00 | 0.00 | 57 | 1008.2 |
| 20260506150037 | 70 | 256 | 0.0 | 8.7 | 0.00 | 0.00 | 0.00 | 55 | 1008.6 |
| 20260506144540 | 70 | 186 | 0.9 | 6.1 | 0.00 | 0.00 | 0.00 | 56 | 1008.4 |
| 20260506143037 | 69 | 246 | 0.0 | 6.1 | 0.00 | 0.00 | 0.00 | 51 | 1008.3 |
| 20260506141532 | 68 | 239 | 0.9 | 13.0 | 0.00 | 0.00 | 0.00 | 52 | 1008.3 |
| 20260506140028 | 68 | 163 | 1.7 | 7.8 | 0.00 | 0.00 | 0.00 | 50 | 1008.4 |
| 20260506134526 | 67 | 129 | 0.0 | 4.3 | 0.00 | 0.00 | 0.00 | 47 | 1008.7 |
| 20260506133025 | 67 | 165 | 0.0 | 6.1 | 0.00 | 0.00 | 0.00 | 46 | 1008.8 |
| 20260506131531 | 67 | 184 | 0.9 | 5.2 | 0.00 | 0.00 | 0.00 | 47 | 1008.7 |
| 20260506130023 | 67 | 335 | 1.7 | 8.7 | 0.00 | 0.00 | 0.00 | 46 | 1008.8 |
| 20260506124521 | 66 | 228 | 0.0 | 5.2 | 0.00 | 0.00 | 0.00 | 41 | 1008.6 |
| 20260506123021 | 66 | 233 | 0.0 | 5.2 | 0.00 | 0.00 | 0.00 | 39 | 1008.9 |
| 20260506121519 | 64 | 245 | 0.0 | 0.9 | 0.00 | 0.00 | 0.00 | 32 | 1009.0 |
| 20260506120020 | 64 | 231 | 0.0 | 1.7 | 0.00 | 0.00 | 0.00 | 32 | 1009.2 |
| 20260506114517 | 64 | 135 | 0.0 | 1.7 | 0.00 | 0.00 | 0.00 | 30 | 1009.3 |
| 20260506113017 | 63 | 166 | 0.0 | 1.7 | 0.00 | 0.00 | 0.00 | 27 | 1009.4 |
| 20260506111514 | 63 | 233 | 0.0 | 0.9 | 0.00 | 0.00 | 0.00 | 26 | 1009.5 |
| 20260506110017 | 62 | 169 | 0.0 | 0.9 | 0.00 | 0.00 | 0.00 | 25 | 1009.5 |
| 20260506104512 | 62 | 263 | 0.0 | 0.9 | 0.00 | 0.00 | 0.00 | 26 | 1009.5 |
| 20260506103011 | 62 | 229 | 0.0 | 1.7 | 0.00 | 0.00 | 0.00 | 26 | 1009.6 |
| 20260506101521 | 62 | 238 | 0.0 | 1.7 | 0.00 | 0.00 | 0.00 | 27 | 1009.4 |
| 20260506100009 | 62 | 188 | 0.0 | 0.9 | 0.00 | 0.00 | 0.00 | 26 | 1009.4 |
| 20260506094519 | 62 | 182 | 0.0 | 1.7 | 0.00 | 0.00 | 0.00 | 28 | 1009.3 |
| 20260506093013 | 61 | 229 | 0.0 | 0.9 | 0.00 | 0.00 | 0.00 | 27 | 1009.4 |
| 20260506091504 | 61 | 168 | 0.0 | 0.0 | 0.00 | 0.00 | 0.00 | 29 | 1009.2 |
| 20260506090001 | 61 | 221 | 0.0 | 0.9 | 0.00 | 0.00 | 0.00 | 34 | 1009.1 |
| 20260506084623 | 62 | 184 | 0.0 | 0.9 | 0.00 | 0.00 | 0.00 | 41 | 1009.2 |
| 20260506083058 | 62 | 240 | 0.0 | 0.0 | 0.00 | 0.00 | 0.00 | 43 | 1009.1 |
| 20260506081557 | 62 | 231 | 0.0 | 0.9 | 0.00 | 0.00 | 0.00 | 46 | 1009.1 |
| 20260506073051 | 63 | 237 | 0.0 | 0.9 | 0.00 | 0.00 | 0.00 | 54 | 1008.7 |
| 20260506071547 | 64 | 252 | 0.0 | 0.9 | 0.00 | 0.00 | 0.00 | 55 | 1008.6 |